TVP7487 LGTS-EPKT

Flight info

Callsign TVP7487
Flight time 1h 43m
Altitude 36000
Route FSK UN128 RUGAS DCT SIN DCT RAXAD DCT PELOV DCT PARAK DCT LITKU DCT ULPUK DCT MEBAN
Aircraft B738/M-SDE3FGHIJ1RWXYZ/LB1

Departure

Time 2026-05-05 17:21
Airport Thessaloniki Macedonia International Airport (LGTS)

Arrival

Time 2026-05-05 19:04
Airport Katowice Wojciech Korfanty International Airport (EPKT)
Time Latitude Longitude Altitude Speed Heading
2026-05-05 16:24 40.52373 22.97496 27 ft 0 kts 44°
2026-05-05 17:11 40.52358 22.97476 27 ft 2 kts 44°
2026-05-05 17:12 40.52341 22.97458 27 ft 4 kts 17°
2026-05-05 17:12 40.52319 22.97461 27 ft 4 kts 317°
2026-05-05 17:12 40.52302 22.97483 27 ft 2 kts 315°
2026-05-05 17:12 40.52301 22.97484 27 ft 0 kts 315°
2026-05-05 17:16 40.52305 22.97480 27 ft 2 kts 315°
2026-05-05 17:16 40.52328 22.97450 27 ft 7 kts 315°
2026-05-05 17:16 40.52366 22.97399 27 ft 8 kts 315°
2026-05-05 17:16 40.52401 22.97344 27 ft 8 kts 290°
2026-05-05 17:17 40.52392 22.97264 27 ft 10 kts 257°
2026-05-05 17:17 40.52385 22.97178 27 ft 10 kts 288°
2026-05-05 17:17 40.52447 22.97130 27 ft 13 kts 345°
2026-05-05 17:17 40.52543 22.97098 28 ft 14 kts 346°
2026-05-05 17:18 40.52638 22.97069 28 ft 14 kts 346°
2026-05-05 17:18 40.52729 22.97039 28 ft 13 kts 347°
2026-05-05 17:18 40.52821 22.97009 28 ft 14 kts 346°
2026-05-05 17:18 40.52912 22.96981 28 ft 13 kts 347°
2026-05-05 17:19 40.53000 22.96953 28 ft 13 kts 346°
2026-05-05 17:19 40.53071 22.96902 27 ft 13 kts 275°
2026-05-05 17:19 40.53035 22.96801 27 ft 12 kts 240°
2026-05-05 17:19 40.52984 22.96776 27 ft 7 kts 166°
2026-05-05 17:20 40.52918 22.96797 28 ft 21 kts 166°
2026-05-05 17:20 40.52534 22.96919 28 ft 92 kts 166°
2026-05-05 17:20 40.51705 22.97181 29 ft 151 kts 166°
2026-05-05 17:20 40.50538 22.97534 213 ft 187 kts 169°
2026-05-05 17:21 40.49241 22.97853 1043 ft 190 kts 172°
2026-05-05 17:21 40.47959 22.98152 1997 ft 186 kts 175°
2026-05-05 17:21 40.46635 22.98578 2528 ft 207 kts 165°
2026-05-05 17:22 40.43544 22.99596 3051 ft 250 kts 170°
2026-05-05 17:22 40.41764 23.00095 3417 ft 269 kts 169°
2026-05-05 17:22 40.39895 23.00628 4050 ft 276 kts 168°
2026-05-05 17:22 40.38045 23.01163 4829 ft 279 kts 167°
2026-05-05 17:23 40.36143 23.01717 5553 ft 282 kts 167°
2026-05-05 17:23 40.34191 23.02009 6255 ft 286 kts 187°
2026-05-05 17:23 40.32332 23.01138 6924 ft 287 kts 216°
2026-05-05 17:23 40.30992 22.99245 7638 ft 284 kts 244°
2026-05-05 17:24 40.30447 22.96789 8330 ft 281 kts 271°
2026-05-05 17:24 40.30789 22.94301 9011 ft 279 kts 297°
2026-05-05 17:24 40.31926 22.92279 9690 ft 278 kts 322°
2026-05-05 17:24 40.33618 22.91080 9959 ft 278 kts 347°
2026-05-05 17:25 40.35531 22.90978 9998 ft 278 kts
2026-05-05 17:25 40.36786 22.91342 9999 ft 279 kts 14°
2026-05-05 17:25 40.39282 22.92279 10009 ft 281 kts 16°
2026-05-05 17:25 40.41187 22.93017 10133 ft 299 kts 16°
2026-05-05 17:26 40.43261 22.93807 10299 ft 320 kts 15°
2026-05-05 17:26 40.45463 22.94629 10569 ft 335 kts 15°
2026-05-05 17:26 40.47736 22.95466 11109 ft 341 kts 15°
2026-05-05 17:26 40.50028 22.96305 11771 ft 344 kts 15°
2026-05-05 17:27 40.52345 22.97144 12441 ft 347 kts 13°
2026-05-05 17:27 40.54726 22.97529 13065 ft 351 kts
2026-05-05 17:27 40.57185 22.97600 13742 ft 355 kts
2026-05-05 17:27 40.59670 22.97628 14336 ft 359 kts
2026-05-05 17:28 40.62182 22.97657 14990 ft 362 kts
2026-05-05 17:28 40.64698 22.97700 15634 ft 365 kts
2026-05-05 17:28 40.67259 22.97758 16276 ft 368 kts
2026-05-05 17:28 40.69828 22.97827 16922 ft 371 kts
2026-05-05 17:29 40.72416 22.97904 17572 ft 374 kts
2026-05-05 17:29 40.75024 22.97984 18213 ft 377 kts
2026-05-05 17:29 40.77658 22.98067 18752 ft 380 kts
2026-05-05 17:29 40.80318 22.98152 19275 ft 383 kts
2026-05-05 17:30 40.82990 22.98237 19805 ft 386 kts
2026-05-05 17:30 40.85695 22.98324 20313 ft 389 kts
2026-05-05 17:30 40.88414 22.98411 20820 ft 392 kts
2026-05-05 17:30 40.91153 22.98498 21327 ft 395 kts
2026-05-05 17:31 40.93917 22.98587 21823 ft 398 kts
2026-05-05 17:31 40.96705 22.98676 22309 ft 402 kts
2026-05-05 17:31 40.99507 22.98766 22785 ft 405 kts
2026-05-05 17:31 41.02336 22.98857 23254 ft 408 kts
2026-05-05 17:32 41.05182 22.98948 23703 ft 410 kts
2026-05-05 17:32 41.08034 22.98970 24090 ft 412 kts 354°
2026-05-05 17:32 41.10814 22.98237 24486 ft 414 kts 344°
2026-05-05 17:32 41.13556 22.96986 24895 ft 415 kts 336°
2026-05-05 17:33 41.16132 22.95294 25278 ft 418 kts 333°
2026-05-05 17:33 41.18673 22.93492 25629 ft 420 kts 332°
2026-05-05 17:33 41.21279 22.91602 25991 ft 423 kts 332°
2026-05-05 17:33 41.23832 22.89751 26359 ft 424 kts 332°
2026-05-05 17:34 41.26426 22.87881 26751 ft 425 kts 332°
2026-05-05 17:34 41.29037 22.86014 27105 ft 427 kts 332°
2026-05-05 17:34 41.31665 22.84144 27415 ft 430 kts 332°
2026-05-05 17:34 41.34316 22.82263 27761 ft 431 kts 332°
2026-05-05 17:35 41.36975 22.80379 28101 ft 433 kts 332°
2026-05-05 17:35 41.39643 22.78489 28420 ft 435 kts 332°
2026-05-05 17:35 41.42326 22.76586 28736 ft 437 kts 332°
2026-05-05 17:35 41.45015 22.74678 29080 ft 438 kts 332°
2026-05-05 17:36 41.47695 22.72774 29548 ft 436 kts 332°
2026-05-05 17:36 41.50332 22.70898 30038 ft 433 kts 332°
2026-05-05 17:36 41.52987 22.69007 30423 ft 432 kts 332°
2026-05-05 17:36 41.55630 22.67123 30776 ft 430 kts 332°
2026-05-05 17:37 41.58258 22.65248 31187 ft 428 kts 331°
2026-05-05 17:37 41.60030 22.63983 31451 ft 426 kts 331°
2026-05-05 17:37 41.63492 22.61508 31858 ft 425 kts 332°
2026-05-05 17:37 41.66099 22.59643 32177 ft 425 kts 331°
2026-05-05 17:38 41.68686 22.57790 32562 ft 422 kts 332°
2026-05-05 17:38 41.71280 22.55931 32902 ft 420 kts 332°
2026-05-05 17:38 41.73861 22.54079 33199 ft 419 kts 332°
2026-05-05 17:38 41.76433 22.52231 33533 ft 418 kts 332°
2026-05-05 17:39 41.78945 22.50426 33864 ft 416 kts 332°
2026-05-05 17:39 41.81535 22.48562 34160 ft 415 kts 332°
2026-05-05 17:39 41.84084 22.46726 34381 ft 415 kts 332°
2026-05-05 17:39 41.86633 22.44889 34608 ft 415 kts 332°
2026-05-05 17:40 41.89173 22.43056 34897 ft 414 kts 332°
2026-05-05 17:40 41.91675 22.41249 35140 ft 413 kts 332°
2026-05-05 17:40 41.94206 22.39420 35349 ft 413 kts 332°
2026-05-05 17:40 41.96736 22.37597 35547 ft 413 kts 333°
2026-05-05 17:41 41.99364 22.36053 35751 ft 413 kts 341°
2026-05-05 17:41 42.02122 22.34974 35955 ft 412 kts 343°
2026-05-05 17:41 42.04900 22.33964 36004 ft 416 kts 344°
2026-05-05 17:42 42.10491 22.31936 36011 ft 414 kts 343°
2026-05-05 17:42 42.16011 22.29883 36025 ft 409 kts 343°
2026-05-05 17:43 42.21490 22.27819 36009 ft 408 kts 343°
2026-05-05 17:43 42.26948 22.25757 36021 ft 406 kts 343°
2026-05-05 17:44 42.32360 22.23616 36027 ft 405 kts 340°
2026-05-05 17:44 42.37635 22.21025 36024 ft 406 kts 338°
2026-05-05 17:45 42.42944 22.18298 36013 ft 408 kts 338°
2026-05-05 17:45 42.47373 22.16041 36025 ft 410 kts 338°
2026-05-05 17:46 42.52738 22.13331 36018 ft 412 kts 339°
2026-05-05 17:46 42.58120 22.10622 36011 ft 413 kts 339°
2026-05-05 17:47 42.63528 22.07899 36013 ft 415 kts 339°
2026-05-05 17:47 42.68948 22.05165 35997 ft 416 kts 339°
2026-05-05 17:48 42.74369 22.02426 35992 ft 415 kts 339°
2026-05-05 17:48 42.79745 21.99696 35991 ft 414 kts 338°
2026-05-05 17:49 42.85108 21.96855 35988 ft 413 kts 337°
2026-05-05 17:49 42.90457 21.93984 35981 ft 413 kts 337°
2026-05-05 17:50 42.95802 21.91119 35975 ft 412 kts 337°
2026-05-05 17:50 43.01140 21.88259 35978 ft 411 kts 337°
2026-05-05 17:51 43.06470 21.85403 35973 ft 411 kts 337°
2026-05-05 17:51 43.11761 21.82563 35971 ft 411 kts 337°
2026-05-05 17:52 43.17091 21.79697 35973 ft 411 kts 337°
2026-05-05 17:52 43.22421 21.76825 35965 ft 411 kts 337°
2026-05-05 17:53 43.27754 21.73946 35969 ft 412 kts 337°
2026-05-05 17:53 43.33088 21.71061 35968 ft 412 kts 337°
2026-05-05 17:54 43.38422 21.68170 35964 ft 412 kts 337°
2026-05-05 17:54 43.43729 21.65289 35969 ft 413 kts 337°
2026-05-05 17:55 43.49080 21.62378 35961 ft 414 kts 337°
2026-05-05 17:55 43.54434 21.59460 35964 ft 414 kts 337°
2026-05-05 17:56 43.59798 21.56532 35960 ft 415 kts 336°
2026-05-05 17:56 43.65170 21.53593 35962 ft 415 kts 336°
2026-05-05 17:57 43.70543 21.50648 35964 ft 415 kts 336°
2026-05-05 17:57 43.75883 21.47715 35960 ft 415 kts 336°
2026-05-05 17:58 43.81277 21.44747 35960 ft 416 kts 336°
2026-05-05 17:58 43.86655 21.41782 35954 ft 416 kts 336°
2026-05-05 17:59 43.92034 21.38811 35962 ft 416 kts 336°
2026-05-05 17:59 43.97415 21.35833 35956 ft 416 kts 336°
2026-05-05 18:00 44.02759 21.32869 35957 ft 416 kts 336°
2026-05-05 18:00 44.08139 21.29880 35956 ft 416 kts 336°
2026-05-05 18:01 44.13520 21.26884 35949 ft 416 kts 336°
2026-05-05 18:01 44.18901 21.23882 35948 ft 416 kts 336°
2026-05-05 18:02 44.24281 21.20875 35950 ft 417 kts 336°
2026-05-05 18:02 44.29661 21.17862 35949 ft 417 kts 336°
2026-05-05 18:03 44.35046 21.14840 35944 ft 417 kts 336°
2026-05-05 18:03 44.40398 21.11831 35948 ft 417 kts 336°
2026-05-05 18:04 44.45793 21.08791 35944 ft 418 kts 336°
2026-05-05 18:04 44.51193 21.05743 35944 ft 418 kts 336°
2026-05-05 18:05 44.56597 21.02686 35945 ft 419 kts 336°
2026-05-05 18:05 44.62010 20.99618 35942 ft 420 kts 336°
2026-05-05 18:06 44.67428 20.96541 35941 ft 420 kts 336°
2026-05-05 18:06 44.72856 20.93452 35939 ft 421 kts 336°
2026-05-05 18:07 44.78252 20.90375 35939 ft 421 kts 336°
2026-05-05 18:07 44.83688 20.87269 35938 ft 422 kts 336°
2026-05-05 18:08 44.89140 20.84148 35941 ft 423 kts 336°
2026-05-05 18:08 44.94590 20.81021 35939 ft 423 kts 336°
2026-05-05 18:09 45.00059 20.77877 35941 ft 423 kts 336°
2026-05-05 18:09 45.05487 20.74749 35940 ft 424 kts 336°
2026-05-05 18:10 45.10952 20.71595 35936 ft 424 kts 336°
2026-05-05 18:10 45.16420 20.68431 35935 ft 424 kts 336°
2026-05-05 18:11 45.21895 20.65258 35937 ft 424 kts 336°
2026-05-05 18:11 45.27356 20.62085 35937 ft 424 kts 336°
2026-05-05 18:12 45.32817 20.58907 35938 ft 424 kts 336°
2026-05-05 18:12 45.38287 20.55716 35936 ft 424 kts 335°
2026-05-05 18:13 45.43712 20.52544 35935 ft 424 kts 335°
2026-05-05 18:13 45.49175 20.49344 35934 ft 424 kts 335°
2026-05-05 18:14 45.54633 20.46140 35933 ft 424 kts 335°
2026-05-05 18:14 45.60110 20.42918 35930 ft 425 kts 335°
2026-05-05 18:15 45.65575 20.39696 35932 ft 425 kts 335°
2026-05-05 18:15 45.71054 20.36460 35929 ft 426 kts 335°
2026-05-05 18:16 45.76499 20.33236 35930 ft 426 kts 335°
2026-05-05 18:16 45.81985 20.29981 35927 ft 427 kts 335°
2026-05-05 18:17 45.87478 20.26716 35927 ft 428 kts 335°
2026-05-05 18:17 45.92979 20.23437 35927 ft 428 kts 335°
2026-05-05 18:18 45.98492 20.20146 35927 ft 429 kts 335°
2026-05-05 18:18 46.04005 20.16846 35924 ft 429 kts 335°
2026-05-05 18:19 46.09519 20.13539 35926 ft 429 kts 335°
2026-05-05 18:19 46.15001 20.10254 35918 ft 430 kts 337°
2026-05-05 18:20 46.20842 20.08201 35934 ft 433 kts 349°
2026-05-05 18:20 46.26814 20.06893 35920 ft 433 kts 349°
2026-05-05 18:21 46.32746 20.05595 35922 ft 434 kts 349°
2026-05-05 18:21 46.38711 20.04241 35919 ft 434 kts 349°
2026-05-05 18:22 46.44677 20.02860 35922 ft 433 kts 349°
2026-05-05 18:22 46.50637 20.01470 35920 ft 433 kts 348°
2026-05-05 18:23 46.56597 20.00077 35918 ft 433 kts 349°
2026-05-05 18:23 46.62556 19.98683 35914 ft 433 kts 349°
2026-05-05 18:24 46.68474 19.97295 35918 ft 433 kts 349°
2026-05-05 18:24 46.74427 19.95896 35919 ft 433 kts 349°
2026-05-05 18:25 46.80392 19.94491 35916 ft 434 kts 349°
2026-05-05 18:25 46.86350 19.93084 35914 ft 434 kts 349°
2026-05-05 18:26 46.92313 19.91673 35913 ft 434 kts 349°
2026-05-05 18:26 46.98278 19.90259 35913 ft 434 kts 349°
2026-05-05 18:27 47.04250 19.88839 35915 ft 434 kts 349°
2026-05-05 18:27 47.10182 19.87426 35913 ft 435 kts 349°
2026-05-05 18:28 47.19159 19.85282 35912 ft 435 kts 349°
2026-05-05 18:28 47.25132 19.83851 35913 ft 435 kts 349°
2026-05-05 18:29 47.31116 19.82414 35911 ft 435 kts 349°
2026-05-05 18:29 47.37058 19.80984 35913 ft 435 kts 349°
2026-05-05 18:30 47.43047 19.79539 35913 ft 436 kts 349°
2026-05-05 18:30 47.49037 19.78091 35916 ft 436 kts 349°
2026-05-05 18:31 47.55023 19.76640 35911 ft 436 kts 349°
2026-05-05 18:31 47.61024 19.75182 35914 ft 436 kts 349°
2026-05-05 18:32 47.66987 19.73731 35912 ft 436 kts 349°
2026-05-05 18:32 47.72962 19.72272 35918 ft 436 kts 349°
2026-05-05 18:33 47.78970 19.70803 35919 ft 437 kts 349°
2026-05-05 18:33 47.83970 19.69577 35923 ft 437 kts 349°
2026-05-05 18:34 47.89978 19.68101 35911 ft 438 kts 349°
2026-05-05 18:34 47.95997 19.66619 35920 ft 437 kts 349°
2026-05-05 18:35 48.01997 19.65138 35915 ft 437 kts 349°
2026-05-05 18:35 48.08009 19.63651 35915 ft 438 kts 348°
2026-05-05 18:36 48.14027 19.62158 35911 ft 438 kts 348°
2026-05-05 18:36 48.20032 19.60665 35920 ft 438 kts 348°
2026-05-05 18:37 48.26118 19.59839 35931 ft 440 kts 359°
2026-05-05 18:37 48.32204 19.60107 35925 ft 441 kts
2026-05-05 18:38 48.38335 19.60440 35915 ft 441 kts 360°
2026-05-05 18:38 48.44474 19.60718 35923 ft 441 kts 359°
2026-05-05 18:39 48.50624 19.60964 35915 ft 441 kts 359°
2026-05-05 18:39 48.56773 19.61199 35921 ft 441 kts 359°
2026-05-05 18:40 48.62830 19.61434 35915 ft 435 kts 359°
2026-05-05 18:40 48.68864 19.61669 35891 ft 432 kts 359°
2026-05-05 18:41 48.71880 19.61786 35542 ft 432 kts 359°
2026-05-05 18:41 48.74855 19.61903 35204 ft 426 kts 359°
2026-05-05 18:41 48.77809 19.62019 34816 ft 422 kts 359°
2026-05-05 18:41 48.80732 19.62134 34432 ft 419 kts 359°
2026-05-05 18:42 48.83647 19.62248 34057 ft 416 kts 359°
2026-05-05 18:42 48.86531 19.62361 33617 ft 412 kts 359°
2026-05-05 18:42 48.89376 19.62473 33204 ft 407 kts 359°
2026-05-05 18:42 48.92195 19.62585 32815 ft 403 kts 359°
2026-05-05 18:43 48.95010 19.62694 32451 ft 409 kts 359°
2026-05-05 18:43 48.97878 19.62803 32093 ft 427 kts 359°
2026-05-05 18:43 49.00907 19.62916 31677 ft 441 kts 359°
2026-05-05 18:43 49.03992 19.63036 31268 ft 446 kts 359°
2026-05-05 18:44 49.07084 19.63161 30806 ft 441 kts 359°
2026-05-05 18:44 49.10138 19.63287 30400 ft 436 kts 359°
2026-05-05 18:44 49.13155 19.63409 29991 ft 431 kts 359°
2026-05-05 18:44 49.16141 19.63529 29531 ft 426 kts 359°
2026-05-05 18:45 49.19088 19.63648 29098 ft 423 kts 359°
2026-05-05 18:45 49.22016 19.63764 28690 ft 418 kts 359°
2026-05-05 18:45 49.24919 19.63880 28280 ft 414 kts 359°
2026-05-05 18:45 49.27787 19.63994 27866 ft 410 kts 359°
2026-05-05 18:46 49.30614 19.64106 27442 ft 403 kts 359°
2026-05-05 18:46 49.33394 19.64218 27060 ft 397 kts 359°
2026-05-05 18:46 49.36140 19.64326 26677 ft 394 kts 359°
2026-05-05 18:46 49.38874 19.64435 26308 ft 392 kts 359°
2026-05-05 18:47 49.41602 19.64544 25928 ft 391 kts 359°
2026-05-05 18:47 49.44266 19.65037 25516 ft 393 kts 16°
2026-05-05 18:47 49.46729 19.66838 25168 ft 393 kts 36°
2026-05-05 18:47 49.48797 19.69567 24758 ft 390 kts 36°
2026-05-05 18:48 49.51205 19.71368 24149 ft 384 kts 10°
2026-05-05 18:48 49.53789 19.71487 23544 ft 375 kts 345°
2026-05-05 18:48 49.56252 19.70204 22831 ft 370 kts 338°
2026-05-05 18:48 49.58701 19.68958 22119 ft 370 kts 341°
2026-05-05 18:49 49.61178 19.67902 21438 ft 369 kts 343°
2026-05-05 18:49 49.63671 19.66955 20807 ft 368 kts 345°
2026-05-05 18:49 49.66162 19.66069 20271 ft 365 kts 346°
2026-05-05 18:49 49.68637 19.65219 19735 ft 363 kts 346°
2026-05-05 18:50 49.71108 19.64383 19209 ft 362 kts 347°
2026-05-05 18:50 49.73563 19.63556 18675 ft 360 kts 347°
2026-05-05 18:50 49.76004 19.62734 18172 ft 359 kts 347°
2026-05-05 18:50 49.78434 19.61915 17601 ft 357 kts 347°
2026-05-05 18:51 49.80853 19.61099 17054 ft 355 kts 347°
2026-05-05 18:51 49.83263 19.60285 16544 ft 352 kts 346°
2026-05-05 18:51 49.85614 19.59489 16063 ft 348 kts 346°
2026-05-05 18:51 49.87973 19.58689 15559 ft 346 kts 346°
2026-05-05 18:52 49.90315 19.57894 15045 ft 345 kts 346°
2026-05-05 18:52 49.92669 19.57094 14566 ft 343 kts 346°
2026-05-05 18:52 49.94983 19.56306 14086 ft 340 kts 346°
2026-05-05 18:52 49.97288 19.55522 13626 ft 338 kts 346°
2026-05-05 18:53 49.99584 19.54739 13146 ft 336 kts 346°
2026-05-05 18:53 50.01807 19.53981 12698 ft 332 kts 346°
2026-05-05 18:53 50.04105 19.53196 12224 ft 330 kts 345°
2026-05-05 18:53 50.06338 19.52433 11762 ft 327 kts 345°
2026-05-05 18:54 50.08555 19.51674 11301 ft 325 kts 346°
2026-05-05 18:54 50.10752 19.50921 10859 ft 322 kts 345°
2026-05-05 18:54 50.12932 19.50174 10439 ft 320 kts 345°
2026-05-05 18:54 50.15046 19.49449 10250 ft 307 kts 345°
2026-05-05 18:55 50.17068 19.48757 10087 ft 294 kts 345°
2026-05-05 18:55 50.19068 19.48070 9713 ft 291 kts 345°
2026-05-05 18:55 50.21038 19.47391 9242 ft 290 kts 345°
2026-05-05 18:55 50.23008 19.46712 8789 ft 289 kts 345°
2026-05-05 18:56 50.24922 19.46051 8356 ft 287 kts 344°
2026-05-05 18:56 50.26923 19.45360 7921 ft 286 kts 344°
2026-05-05 18:56 50.28852 19.44694 7510 ft 283 kts 344°
2026-05-05 18:56 50.30771 19.44031 7100 ft 281 kts 343°
2026-05-05 18:57 50.32652 19.43382 6916 ft 271 kts 343°
2026-05-05 18:57 50.34487 19.42748 6542 ft 269 kts 343°
2026-05-05 18:57 50.36259 19.42135 6403 ft 257 kts 342°
2026-05-05 18:57 50.37948 19.41553 6330 ft 239 kts 342°
2026-05-05 18:58 50.39550 19.40999 6245 ft 226 kts 341°
2026-05-05 18:58 50.41050 19.40479 6078 ft 216 kts 341°
2026-05-05 18:58 50.42482 19.39979 5820 ft 213 kts 341°
2026-05-05 18:58 50.43918 19.39478 5517 ft 211 kts 341°
2026-05-05 18:59 50.45358 19.38975 5191 ft 212 kts 341°
2026-05-05 18:59 50.46675 19.38105 4833 ft 200 kts 310°
2026-05-05 18:59 50.47361 19.36348 4487 ft 184 kts 278°
2026-05-05 18:59 50.47525 19.34408 4173 ft 178 kts 264°
2026-05-05 19:00 50.47546 19.32497 3930 ft 174 kts 264°
2026-05-05 19:00 50.47570 19.30567 3612 ft 173 kts 263°
2026-05-05 19:00 50.47577 19.28670 3348 ft 171 kts 263°
2026-05-05 19:00 50.47579 19.26835 3106 ft 165 kts 263°
2026-05-05 19:01 50.47578 19.25024 2919 ft 169 kts 263°
2026-05-05 19:01 50.47580 19.23206 2674 ft 165 kts 263°
2026-05-05 19:01 50.47581 19.21420 2460 ft 159 kts 264°
2026-05-05 19:01 50.47583 19.19707 2247 ft 156 kts 264°
2026-05-05 19:02 50.47584 19.17986 2089 ft 156 kts 264°
2026-05-05 19:02 50.47585 19.16310 1839 ft 156 kts 265°
2026-05-05 19:02 50.47588 19.14599 1616 ft 160 kts 266°
2026-05-05 19:02 50.47590 19.12871 1374 ft 156 kts 266°
2026-05-05 19:03 50.47593 19.11164 1163 ft 158 kts 267°
2026-05-05 19:03 50.47597 19.09453 1005 ft 153 kts 268°
2026-05-05 19:03 50.47600 19.08065 996 ft 96 kts 271°
2026-05-05 19:03 50.47599 19.07299 1001 ft 58 kts 264°
2026-05-05 19:04 50.47495 19.06872 1004 ft 16 kts 240°
2026-05-05 19:04 50.47487 19.06848 1001 ft 0 kts 239°
2026-05-05 19:04 50.47486 19.06846 1000 ft 2 kts 239°
2026-05-05 19:05 50.47462 19.06783 998 ft 8 kts 239°
2026-05-05 19:05 50.47434 19.06708 1001 ft 8 kts 239°
2026-05-05 19:05 50.47402 19.06639 997 ft 8 kts 213°
2026-05-05 19:05 50.47337 19.06626 997 ft 11 kts 180°
2026-05-05 19:06 50.47263 19.06635 1002 ft 10 kts 156°
2026-05-05 19:06 50.47236 19.06739 997 ft 12 kts 90°
2026-05-05 19:06 50.47235 19.06874 1002 ft 12 kts 90°
2026-05-05 19:06 50.47236 19.07005 1002 ft 12 kts 90°
2026-05-05 19:07 50.47235 19.07136 1002 ft 12 kts 90°
2026-05-05 19:07 50.47235 19.07261 999 ft 11 kts 90°
2026-05-05 19:07 50.47235 19.07385 1002 ft 11 kts 90°
2026-05-05 19:07 50.47234 19.07505 1002 ft 11 kts 90°
2026-05-05 19:08 50.47234 19.07621 1002 ft 11 kts 90°
2026-05-05 19:08 50.47234 19.07760 1000 ft 15 kts 90°
2026-05-05 19:08 50.47233 19.07921 1001 ft 15 kts 90°
2026-05-05 19:08 50.47233 19.08079 1003 ft 14 kts 90°
2026-05-05 19:09 50.47232 19.08228 1003 ft 13 kts 90°
2026-05-05 19:09 50.47232 19.08371 1001 ft 13 kts 90°
2026-05-05 19:09 50.47232 19.08510 999 ft 13 kts 90°
2026-05-05 19:09 50.47232 19.08647 999 ft 12 kts 90°
2026-05-05 19:10 50.47232 19.08781 997 ft 12 kts 91°
2026-05-05 19:10 50.47231 19.08911 1003 ft 12 kts 90°
2026-05-05 19:10 50.47231 19.09036 1003 ft 11 kts 89°
2026-05-05 19:10 50.47217 19.09148 998 ft 9 kts 145°
2026-05-05 19:11 50.47189 19.09155 997 ft 4 kts 180°
2026-05-05 19:11 50.47154 19.09155 997 ft 5 kts 180°
2026-05-05 19:11 50.47138 19.09154 1002 ft 0 kts 180°